Weather History for KVCT - May, 2013

Change the Weather History Date:

Monday, May 20, 2013

  Actual Average Record
Temperature  
Mean Temperature 84 °F 78 °F  
Max Temperature 90 °F 87 °F 96 °F (2003)
Min Temperature 77 °F 68 °F 53 °F (2002)
Degree Days  
Heating Degree Days 0 0  
Month to date heating degree days 9 0  
Since 1 July heating degree days 1024 1248  
Cooling Degree Days 19 13  
Month to date cooling degree days 177 216  
Year to date cooling degree days 459 505  
Growing Degree Days 34 (Base 50)    
Moisture  
Dew Point 71 °F    
Average Humidity 68    
Maximum Humidity 85    
Minimum Humidity 50    
Precipitation  
Precipitation 0.00 in 0.18 in 1.67 in (1967)
Month to date precipitation 0.33 3.31  
Year to date precipitation 7.53 13.50  
Snow  
Snow 0.00 in - - ()
Month to date snowfall 0.0  
Since 1 July snowfall 0.0  
Snow Depth 0.00 in    
Sea Level Pressure  
Sea Level Pressure 29.81 in    
Wind  
Wind Speed 17 mph (SSE)    
Max Wind Speed 28 mph    
Max Gust Speed 36 mph    
Visibility 10 miles    
Events      
T = Trace of Precipitation, MM = Missing Value Source: NWS Daily Summary

Daily Weather History Graph

Daily Weather History Graph

Search for Another Location

Airport or City:

Trip Planner

Search our weather history database for the weather conditions in past years. The results will help you decide how hot, cold, wet, or windy it might be!

Date:

Astronomy

May. 20, 2013 Rise Set
Actual Time 6:33 AM CDT 8:15 PM CDT
Civil Twilight 6:07 AM CDT 8:41 PM CDT
Nautical Twilight 5:36 AM CDT 9:12 PM CDT
Astronomical Twilight 5:03 AM CDT 9:45 PM CDT
Moon 3:44 PM CDT (5/20) 3:05 AM CDT (5/20)
Length of Visible Light 14h 33m
Length of Day
13h 41m
Waxing Gibbous, 75% of the Moon is Illuminated
May 20
Waxing Gibbous
May 24
Full
May 31
Last Quarter
Jun 8
New
Jun 16
First Quarter

Hourly Weather History & Observations

Time (CDT) Temp. Heat Index Dew Point Humidity Pressure Visibility Wind Dir Wind Speed Gust Speed Precip Events Conditions
12:51 AM 78.1 °F - 72.0 °F 81% 29.83 in 10.0 mi SSE 12.7 mph - N/A   Overcast
1:51 AM 77.0 °F - 72.0 °F 84% 29.82 in 10.0 mi SSE 12.7 mph - N/A   Mostly Cloudy
2:51 AM 77.0 °F - 72.0 °F 84% 29.82 in 10.0 mi SSE 12.7 mph - N/A   Overcast
3:51 AM 77.0 °F - 72.0 °F 84% 29.81 in 10.0 mi SSE 12.7 mph - N/A   Overcast
4:51 AM 77.0 °F - 72.0 °F 84% 29.81 in 10.0 mi SSE 12.7 mph - N/A   Overcast
5:51 AM 77.0 °F - 72.0 °F 84% 29.81 in 10.0 mi SSE 11.5 mph - N/A   Overcast
6:51 AM 77.0 °F - 72.0 °F 84% 29.83 in 10.0 mi SSE 11.5 mph - N/A   Overcast
7:51 AM 78.1 °F - 71.1 °F 79% 29.83 in 10.0 mi SSE 15.0 mph - N/A   Overcast
8:51 AM 79.0 °F - 71.1 °F 77% 29.85 in 10.0 mi SSE 16.1 mph - N/A   Overcast
9:51 AM 81.0 °F 84.9 °F 71.1 °F 72% 29.87 in 10.0 mi SSE 18.4 mph - N/A   Overcast
10:51 AM 82.9 °F 88.0 °F 72.0 °F 69% 29.86 in 10.0 mi South 16.1 mph 24.2 mph N/A   Overcast
11:06 AM 82.4 °F 87.2 °F 71.6 °F 70% 29.87 in 10.0 mi South 17.3 mph 25.3 mph N/A   Overcast
11:27 AM 84.2 °F 89.6 °F 71.6 °F 66% 29.86 in 10.0 mi SE 19.6 mph 27.6 mph N/A   Overcast
11:51 AM 86.0 °F 91.5 °F 71.1 °F 61% 29.86 in 10.0 mi SSE 20.7 mph 27.6 mph N/A   Mostly Cloudy
12:04 PM 86.0 °F 90.4 °F 69.8 °F 58% 29.86 in 10.0 mi SSE 21.9 mph - N/A   Scattered Clouds
12:51 PM 87.8 °F 92.6 °F 69.8 °F 55% 29.84 in 10.0 mi SSE 26.5 mph 29.9 mph N/A   Partly Cloudy
1:51 PM 88.0 °F 92.9 °F 70.0 °F 55% 29.81 in 10.0 mi South 21.9 mph 29.9 mph N/A   Clear
2:51 PM 89.1 °F 92.9 °F 68.0 °F 50% 29.81 in 10.0 mi SSE 24.2 mph 31.1 mph N/A   Clear
3:51 PM 89.6 °F 94.7 °F 69.8 °F 52% 29.80 in 10.0 mi SE 21.9 mph 28.8 mph N/A   Partly Cloudy
4:51 PM 88.0 °F 93.8 °F 71.1 °F 57% 29.77 in 10.0 mi SSE 21.9 mph 31.1 mph N/A   Partly Cloudy
5:51 PM 86.0 °F 91.5 °F 71.1 °F 61% 29.76 in 10.0 mi SSE 19.6 mph 27.6 mph N/A   Clear
6:51 PM 82.9 °F 87.5 °F 71.1 °F 67% 29.74 in 10.0 mi SE 18.4 mph - N/A   Partly Cloudy
7:51 PM 80.1 °F 83.8 °F 72.0 °F 76% 29.75 in 10.0 mi SSE 17.3 mph - N/A   Scattered Clouds
7:59 PM 80.6 °F 84.6 °F 71.6 °F 74% 29.76 in 10.0 mi SSE 15.0 mph - N/A   Mostly Cloudy
8:51 PM 78.1 °F - 72.0 °F 81% 29.77 in 10.0 mi SE 16.1 mph - N/A   Mostly Cloudy
9:51 PM 78.1 °F - 73.0 °F 84% 29.79 in 10.0 mi SE 13.8 mph - N/A   Overcast
10:51 PM 78.1 °F - 73.0 °F 84% 29.82 in 10.0 mi SSE 13.8 mph - N/A   Overcast
11:51 PM 79.0 °F - 73.0 °F 82% 29.83 in 10.0 mi SSE 9.2 mph - N/A   Overcast